Weather in Luzhnikovo

Russia / Tver Oblast     57°24′06″N   34°08′10″E
temp.,
°C
wind,
m/s
gust,
m/s
humid.,
%
clouds,
%
prec.,
mm/h
press.,
hPa
HPBL,
m
26 september, sun
sun2600:00+8wnw41096100 0.7 1002677
03:00+7wnw4119391 0.9 1004852
06:00+8nw4993100 0.9 10051174
09:00+7nw4993100 1.8 10071206
12:00+8nw51091100 0.7 10101216
15:00+9nnw4109196 1.1 1013745
18:00+9nnw4109178 0.1 1016677
21:00+8nnw4109597 0.1 1018549
27 september, mon
mon2700:00+8n3896100 0.0 1020463
03:00+8nnw279789 0.0 1023357
06:00+7nnw279858 0.0 1024277
09:00+8n379159 0.0 1026392
12:00+12nne476676 0.0 10261152
15:00+12nne467077 0.3 10271112
18:00+10nne3883100 0.3 1027571
21:00+8nne299330 0.4 1028488
28 september, tue
tue2800:00+8nne2894100 0.0 1029436
03:00+6nne269735 0.0 1030250
06:00+4ne279932 0.0 1031199
09:00+6ene2693100 0.0 1032384
12:00+8ene357595 0.1 1032837
15:00+9e3360100 0.1 10331225
18:00+8e1267100 0.0 103432
21:00+5ene117952 0.0 103510
29 september, wed
wed2900:00+4se119051 0.0 103610
03:00+3ne009343 0.0 103710
06:00+2n0194100 0.0 103710
09:00+6nne118099 0.0 1037149
12:00+10ne115993 0.0 1037631
15:00+11ne1152100 0.0 1036868
18:00+8nne1170100 0.0 103610
21:00+5ne008070 0.0 103610
30 september, thu
thu3000:00+4w008695 0.0 103710
03:00+4w008952 0.0 103710
06:00+3w11926 0.0 103710
09:00+7w017412 0.0 1037131
12:00+12se11555 0.0 1036640
15:00+13sse12505 0.0 1036993
18:00+9se11715 0.0 103510
21:00+6ssw11813 0.0 103610